TimeEDT,TemperatureF,Dew PointF,Humidity,Sea Level PressureIn,VisibilityMPH,Wind Direction,Wind SpeedMPH,Gust SpeedMPH,PrecipitationIn,Events,Conditions,WindDirDegrees,DateUTC
12:15 AM,31.1,28.0,88,30.20,10.0,Calm,Calm,-,N/A,,Clear,0,2012-10-08 04:15:00
12:35 AM,30.9,28.0,89,30.19,10.0,Calm,Calm,-,N/A,,Clear,0,2012-10-08 04:35:00
12:55 AM,30.6,27.9,90,30.19,10.0,Calm,Calm,-,N/A,,Clear,0,2012-10-08 04:55:00
1:15 AM,30.6,27.9,90,30.19,10.0,Calm,Calm,-,N/A,,Clear,0,2012-10-08 05:15:00
1:35 AM,30.2,27.5,90,30.19,10.0,Calm,Calm,-,N/A,,Clear,0,2012-10-08 05:35:00
1:55 AM,30.0,27.3,90,30.19,10.0,Calm,Calm,-,N/A,,Clear,0,2012-10-08 05:55:00
2:15 AM,30.2,27.5,90,30.20,10.0,Calm,Calm,-,N/A,,Clear,0,2012-10-08 06:15:00
2:35 AM,30.7,28.0,90,30.21,10.0,Calm,Calm,-,N/A,,Clear,0,2012-10-08 06:35:00
2:55 AM,30.7,28.0,90,30.21,10.0,Calm,Calm,-,N/A,,Clear,0,2012-10-08 06:55:00
3:15 AM,30.4,27.7,90,30.21,10.0,Calm,Calm,-,N/A,,Clear,0,2012-10-08 07:15:00
3:35 AM,29.8,27.3,90,30.21,10.0,Calm,Calm,-,N/A,,Clear,0,2012-10-08 07:35:00
3:55 AM,29.8,27.3,90,30.21,10.0,Calm,Calm,-,N/A,,Clear,0,2012-10-08 07:55:00
4:15 AM,29.1,26.4,90,30.21,10.0,Calm,Calm,-,N/A,,Clear,0,2012-10-08 08:15:00
4:35 AM,29.1,26.6,90,30.21,10.0,Calm,Calm,-,N/A,,Clear,0,2012-10-08 08:35:00
4:55 AM,28.9,26.4,90,30.20,10.0,Calm,Calm,-,N/A,,Clear,0,2012-10-08 08:55:00
5:15 AM,28.8,26.2,90,30.21,10.0,Calm,Calm,-,N/A,,Clear,0,2012-10-08 09:15:00
5:35 AM,28.4,25.9,90,30.21,10.0,Calm,Calm,-,N/A,,Clear,0,2012-10-08 09:35:00
5:55 AM,28.2,25.7,90,30.21,10.0,Calm,Calm,-,N/A,,Clear,0,2012-10-08 09:55:00
6:35 AM,28.0,25.5,90,30.22,10.0,Calm,Calm,-,N/A,,Clear,0,2012-10-08 10:35:00
6:55 AM,27.5,25.2,91,30.21,10.0,Calm,Calm,-,N/A,,Clear,0,2012-10-08 10:55:00
7:15 AM,27.5,24.8,90,30.21,10.0,Calm,Calm,-,N/A,,Clear,0,2012-10-08 11:15:00
7:35 AM,27.5,25.0,90,30.21,10.0,Calm,Calm,-,N/A,,Clear,0,2012-10-08 11:35:00
7:55 AM,27.1,24.6,90,30.22,10.0,Calm,Calm,-,N/A,,Clear,0,2012-10-08 11:55:00
8:15 AM,27.7,25.3,91,30.22,10.0,Calm,Calm,-,N/A,,Clear,0,2012-10-08 12:15:00
8:35 AM,30.0,27.3,90,30.22,10.0,Calm,Calm,-,N/A,,Clear,0,2012-10-08 12:35:00
8:55 AM,32.2,30.0,92,30.23,10.0,Calm,Calm,-,N/A,,Clear,0,2012-10-08 12:55:00
9:15 AM,35.4,32.5,89,30.23,10.0,Calm,Calm,-,N/A,,Clear,0,2012-10-08 13:15:00
9:35 AM,38.5,34.3,85,30.24,10.0,South,3.5,-,N/A,,Clear,180,2012-10-08 13:35:00
9:55 AM,41.9,34.3,75,30.24,10.0,South,5.8,-,N/A,,Clear,180,2012-10-08 13:55:00
10:15 AM,44.6,33.6,65,30.24,10.0,South,5.8,-,N/A,,Clear,180,2012-10-08 14:15:00
10:35 AM,45.7,31.1,57,30.25,10.0,South,6.9,-,N/A,,Clear,180,2012-10-08 14:35:00
10:55 AM,47.3,30.4,52,30.24,10.0,South,8.1,-,N/A,,Clear,180,2012-10-08 14:55:00
11:15 AM,48.2,28.9,47,30.24,10.0,SSW,8.1,-,N/A,,Clear,210,2012-10-08 15:15:00
11:35 AM,49.3,27.5,43,30.24,10.0,South,6.9,-,N/A,,Clear,180,2012-10-08 15:35:00
11:55 AM,49.6,27.5,42,30.23,10.0,South,8.1,-,N/A,,Clear,190,2012-10-08 15:55:00
12:15 PM,50.2,26.2,39,30.23,10.0,SSW,4.6,-,N/A,,Clear,210,2012-10-08 16:15:00
12:35 PM,50.7,26.1,38,30.23,10.0,South,5.8,-,N/A,,Clear,180,2012-10-08 16:35:00
12:55 PM,51.1,26.2,38,30.22,10.0,Calm,Calm,-,N/A,,Clear,0,2012-10-08 16:55:00
1:15 PM,51.8,26.1,37,30.21,10.0,SW,4.6,-,N/A,,Clear,220,2012-10-08 17:15:00
1:35 PM,52.5,24.6,34,30.20,10.0,South,5.8,-,N/A,,Clear,180,2012-10-08 17:35:00
1:55 PM,53.1,26.2,35,30.19,10.0,WSW,5.8,-,N/A,,Clear,240,2012-10-08 17:55:00
2:15 PM,53.8,24.6,32,30.18,10.0,WSW,4.6,-,N/A,,Clear,250,2012-10-08 18:15:00
2:35 PM,54.5,25.5,33,30.17,10.0,South,8.1,-,N/A,,Clear,180,2012-10-08 18:35:00
2:55 PM,54.3,24.8,32,30.16,10.0,SW,4.6,-,N/A,,Clear,230,2012-10-08 18:55:00
3:15 PM,55.0,24.1,30,30.16,10.0,SW,5.8,-,N/A,,Clear,230,2012-10-08 19:15:00
3:35 PM,55.2,26.2,33,30.15,10.0,SW,10.4,-,N/A,,Clear,220,2012-10-08 19:35:00
3:55 PM,55.0,24.3,30,30.14,10.0,South,4.6,-,N/A,,Clear,170,2012-10-08 19:55:00
4:15 PM,55.4,25.0,31,30.14,10.0,West,6.9,-,N/A,,Clear,260,2012-10-08 20:15:00
4:35 PM,55.6,24.8,30,30.14,10.0,South,8.1,-,N/A,,Clear,190,2012-10-08 20:35:00
4:55 PM,55.0,24.3,30,30.13,10.0,SSW,9.2,-,N/A,,Clear,210,2012-10-08 20:55:00
5:15 PM,55.0,23.5,30,30.13,10.0,South,5.8,-,N/A,,Clear,190,2012-10-08 21:15:00
5:35 PM,54.7,23.7,30,30.12,10.0,South,4.6,-,N/A,,Clear,190,2012-10-08 21:35:00
5:55 PM,54.5,24.8,32,30.12,10.0,South,5.8,-,N/A,,Clear,170,2012-10-08 21:55:00
6:15 PM,54.0,25.7,34,30.12,10.0,South,5.8,-,N/A,,Clear,170,2012-10-08 22:15:00
6:35 PM,53.2,26.2,35,30.12,10.0,South,5.8,-,N/A,,Clear,190,2012-10-08 22:35:00
6:55 PM,51.3,27.9,40,30.12,10.0,South,4.6,-,N/A,,Clear,180,2012-10-08 22:55:00
7:15 PM,48.4,29.3,48,30.12,10.0,South,4.6,-,N/A,,Clear,190,2012-10-08 23:15:00
7:55 PM,42.6,32.0,66,30.11,10.0,SSE,3.5,-,N/A,,Clear,160,2012-10-08 23:55:00
8:15 PM,41.0,32.0,70,30.11,10.0,Calm,Calm,-,N/A,,Clear,0,2012-10-09 00:15:00
8:35 PM,40.3,32.0,72,30.12,10.0,Calm,Calm,-,N/A,,Clear,0,2012-10-09 00:35:00
8:55 PM,37.4,32.2,81,30.12,10.0,Calm,Calm,-,N/A,,Clear,0,2012-10-09 00:55:00
9:15 PM,37.2,32.5,83,30.13,10.0,Calm,Calm,-,N/A,,Clear,0,2012-10-09 01:15:00
9:35 PM,35.8,31.5,84,30.14,10.0,SSE,3.5,-,N/A,,Clear,160,2012-10-09 01:35:00
9:55 PM,35.6,32.0,87,30.14,10.0,South,3.5,-,N/A,,Clear,170,2012-10-09 01:55:00
10:15 PM,35.2,31.8,87,30.14,10.0,SSE,3.5,-,N/A,,Clear,160,2012-10-09 02:15:00
10:35 PM,34.7,30.9,86,30.14,10.0,South,3.5,-,N/A,,Clear,170,2012-10-09 02:35:00
10:55 PM,33.8,30.9,89,30.14,10.0,Calm,Calm,-,N/A,,Clear,0,2012-10-09 02:55:00
11:15 PM,34.2,30.6,87,30.13,10.0,Calm,Calm,-,N/A,,Clear,0,2012-10-09 03:15:00
11:55 PM,33.3,30.4,89,30.13,10.0,Calm,Calm,-,N/A,,Clear,0,2012-10-09 03:55:00